Location: Bun
(42.9667°N, 0.1500°W)
Time: 04:36:15
(UTC+00:00)

Cosmos 1626 Rocket - Pass Details

Date: 03 February 2023
Orbit: 602 x 629 km, 82.5° (Epoch: 26 March)

Event Time Altitude Azimuth Distance (km) Brightness Sun altitude
Rises 19:14:40 0° 180° (S) 2,838 7.0 -22.0°
Reaches altitude 10° 19:16:52 10° 178° (S) 1,941 6.1 -22.4°
Enters shadow 19:19:23 34° 168° (SSE) 989 4.4 -22.9°
